Domov               UVHVVR             MKGP            O straneh              
ZDRAVSTVENO VARSTVO RASTLIN
  MREŽA AGROMET. POSTAJ
 ► PROGNOSTIČNA OBVESTILA
AGROMETEOROLOŠKI PODATKI -
ARSO
OBVLADOVANJE TVEGANJ ZARADI
NEUGODNIH VREMENSKIH RAZMER
  ► NARAVNE NESREČE
  ► SUŠA/MOČA
  ► NAMAKANJE
  ► ŽLED (gozdarstvo)
KARTOGRAFSKI PRIKAZI
SPLETNE POVEZAVE
PROJEKTI IN PUBLIKACIJE

AGROMETEOROLOŠKA MREŽA: VREMENSKE POSTAJE IN FENOLOŠKA OPAZOVANJA

Pregled podatkov za lokacijo Sremič, meteorološka postaja 49592

Pregled senzorjev na lokaciji

ID Ime Zadnja
vrednost
Datum
zadnje
spremembe
Tip
senzorja
3947 Omočenost lista (U) 0 U 25.2.2018 12:30 A730WET
3948 Padavine (mm) 0 mm 25.2.2018 12:30 Generic 0.2 mm
3945 Relativna vlaga 2 m (% RH) 60,68 % RH 25.2.2018 12:30 Generic 0 - 100 %
3946 Temperatura 2 m (°C) -8,03 °C 25.2.2018 12:30 Generic -40 - +60 °C

Pregled podatkov zadnjih 24 ur

Zap.
št.
Datum in čas Sremič
Omočenost
lista
Padavine Relativna
vlaga
2
m
Temperatura
2
m
1 25.2.2018 12:30 0 0 60,7 -8
2 25.2.2018 12:00 0 0 60,4 -8,2
3 25.2.2018 11:30 0 0 58,7 -7,9
4 25.2.2018 11:00 0 0 58,7 -8,3
5 25.2.2018 10:30 0 0 62 -9,2
6 25.2.2018 10:00 0 0 61,6 -9,2
7 25.2.2018 09:30 0 0,2 61,9 -9,4
8 25.2.2018 09:00 0 0 65,1 -10,3
9 25.2.2018 08:30 0 0 66 -10,6
10 25.2.2018 08:00 0 0 65,8 -10,4
11 25.2.2018 07:30 0 0 67,4 -10,4
12 25.2.2018 07:00 0 0 68,6 -10,4
13 25.2.2018 06:30 0 0 68,5 -10,2
14 25.2.2018 06:00 0 0 69,9 -10,1
15 25.2.2018 05:30 0 0 70,7 -9,8
16 25.2.2018 05:00 0 0 70,6 -9,4
17 25.2.2018 04:30 0 0 71,2 -9,3
18 25.2.2018 04:00 0 0 70 -9
19 25.2.2018 03:30 0 0 69,7 -9
20 25.2.2018 03:00 0 0 68,1 -8,8
21 25.2.2018 02:30 0 0 66 -8,5
22 25.2.2018 02:00 0 0 62,6 -8,1
23 25.2.2018 01:30 0 0 59,8 -7,4
24 25.2.2018 01:00 0 0 58 -7,1
25 25.2.2018 00:30 0 0 58 -7,1
26 25.2.2018 00:00 0 0 60,6 -7,3
27 24.2.2018 23:30 0 0 63 -7,2
28 24.2.2018 23:00 0 0 66,4 -6,8
29 24.2.2018 22:30 0 0 70,6 -6,5
30 24.2.2018 22:00 0 0 71 -6,1
31 24.2.2018 21:30 0 0 71,1 -5,9
32 24.2.2018 21:00 0 0 68,9 -5,5
33 24.2.2018 20:30 0 0 67,6 -5,2
34 24.2.2018 20:00 0 0 68,4 -5,1
35 24.2.2018 19:30 0 0 70 -5
36 24.2.2018 19:00 0 0 71,2 -4,9
37 24.2.2018 18:30 0 0 71,7 -4,9
38 24.2.2018 18:00 0 0 72,4 -4,9
39 24.2.2018 17:30 0 0 71,8 -4,8
40 24.2.2018 17:00 0 0 70,7 -4,6
41 24.2.2018 16:30 0 0 69,8 -4,3
42 24.2.2018 16:00 0 0 68,4 -4
43 24.2.2018 15:30 0 0 68,4 -3,7
44 24.2.2018 15:00 0 0 68,4 -3,6
45 24.2.2018 14:30 0 0 71,9 -3,6
46 24.2.2018 14:00 0 0 74 -3,7
47 24.2.2018 13:30 0 0 74,2 -3,7
48 24.2.2018 13:00 0 0 74 -3,4
© 2011 Ministrstvo za kmetijstvo, gozdarstvo in prehrano. Vse pravice pridržane.